AirNav   Duncan Aviation - Near you to keep you flying
 
 1454 users online  

KPHK Palm Beach County Glades Airport
Pahokee, Florida, USA

GOING TO PAHOKEE?


FAA INFORMATION EFFECTIVE 26 JANUARY 2023

Location

FAA Identifier: PHK
Lat/Long: 26-47-06.1000N 080-41-36.1000W
26-47.101667N 080-41.601667W
26.7850278,-80.6933611
(estimated)
Elevation: 15.9 ft. / 4.8 m (surveyed)
Variation: 07W (2020)
From city: 3 miles SW of PAHOKEE, FL
Time zone: UTC -5 (UTC -4 during Daylight Saving Time)
Zip code: 33476

Airport Operations

Airport use: Open to the public
Activation date: 06/1949
Control tower: no
ARTCC: MIAMI CENTER
FSS: MIAMI FLIGHT SERVICE STATION
NOTAMs facility: MIA (NOTAM-D service available)
Attendance: 0800-1800
SVC AFT HR - 561-626-9799.
Wind indicator: lighted
Segmented circle: yes
Lights: ACTVT MIRL RWY 18/36 - CTAF.
Beacon: white-green (lighted land airport)
Operates sunset to sunrise.

Airport Communications

CTAF/UNICOM: 122.8
PALM BEACH APPROACH: 125.2
PALM BEACH DEPARTURE: 125.2
WX AWOS-3PT at 2IS (19 nm W): 124.175 (863-983-7020)

Nearby radio navigation aids

VOR radial/distance  VOR name  Freq  Var
PHK at fieldPAHOKEE VOR/DME115.4000E
PBIr284/33.1PALM BEACH VORTAC115.7003W
LBVr093/37.5LA BELLE VORTAC110.4001E

 
NDB name  Hdg/Dist  Freq  Var  ID
UNITED254/20.640505WUTX ..- - -..-

Airport Services

Fuel available: 100LL JET-A
Parking: hangars and tiedowns
Airframe service: NONE
Powerplant service: NONE
Bottled oxygen: NONE
Bulk oxygen: NONE

Runway Information

Runway 18/36

Dimensions: 4116 x 75 ft. / 1255 x 23 m
Surface: asphalt, in good condition
Weight bearing capacity: 
PCN 13 /F/B/X/T
Single wheel: 20.0
Runway edge lights: medium intensity
RUNWAY 18  RUNWAY 36
Latitude: 26-47.439657N26-46.764527N
Longitude: 080-41.643560W080-41.558973W
Elevation: 15.3 ft.15.6 ft.
Traffic pattern: leftleft
Runway heading: 181 magnetic, 174 true001 magnetic, 354 true
Displaced threshold: 100 ft.52 ft.
Declared distances: TORA:4069 TODA:4069 ASDA:4119 LDA:4016TORA:4016 TODA:4016 ASDA:4170 LDA:4069
Markings: nonprecision, in good conditionnonprecision, in good condition
Visual slope indicator: 2-light PAPI on left (3.00 degrees glide path)2-light PAPI on left (3.00 degrees glide path)
Runway end identifier lights: yesyes
Touchdown point: yes, no lightsyes, no lights
Obstructions: 36 ft. tree, 1050 ft. from runway, 155 ft. right of centerline, 23:1 slope to clear
APCH RATIO 34:1 AT DSPLCD THR.
3 ft. fence, 213 ft. from runway, 250 ft. left of centerline, 6:1 slope to clear
APCH RATIO 34:1 AT DSPLCD THR DUE TO 25 FT PLINE 820 FT FM RWY END 250 FT R OF CNTRLN.

Airport Ownership and Management from official FAA records

Ownership: Publicly-owned
Owner: PALM BEACH COUNTY
DEPARTMENT OF AIRPORTS, 846 PBIA
WEST PALM BEACH, FL 33406-1491
Phone 561-471-7420
Manager: LAURA BEEBE
846 PALM BEACH INTL AIRPORT
WEST PALM BEACH, FL 33406-1470
Phone 561-471-7420

Airport Operational Statistics

Aircraft based on the field: 12
Single engine airplanes: 10
Multi engine airplanes: 1
Helicopters: 1
    
Aircraft operations: avg 101/day *
79% transient general aviation
20% local general aviation
<1% air taxi
* for 12-month period ending 31 December 2018

Additional Remarks

BIRDS ON AND INVOF ARPT.
ARPT SFC COND NOT RPRTD FOR ALL RWYS.
FOR CD IF UNA TO CTC ON FSS FREQ, CTC PALM BEACH APCH AT 561-275-1430 OR 561-684-9047.
FBO SVC FEE MAY APPLY.

Instrument Procedures

NOTE: All procedures below are presented as PDF files. If you need a reader for these files, you should download the free Adobe Reader.

NOT FOR NAVIGATION. Please procure official charts for flight.
FAA instrument procedures published for use from 26 January 2023 at 0901Z to 23 February 2023 at 0900z.

 
IAPs - Instrument Approach Procedures
RNAV (GPS) RWY 18   download
RNAV (GPS) RWY 36   download
NOTE: Special Take-Off Minimums/Departure Procedures apply   download (257KB)

Other nearby airports with instrument procedures:

2IS - Airglades Airport (19 nm W)
06FA - William P Gwinn Airport (21 nm E)
F45 - North Palm Beach County General Aviation Airport (25 nm E)
KOBE - Okeechobee County Airport (30 nm N)
KPBI - Palm Beach International Airport (33 nm E)
 
Loc | Ops | Rwys | IFR | FBO | Links
Com | Nav | Svcs | Stats | Notes

Reliance Aviation
AirBoss

 
Area around KPHK (Palm Beach County Glades Airport)
 
Road maps at: MapQuest Bing Google
 
Aerial photo
WARNING: Photo may not be current or correct
Aerial photo of KPHK (Palm Beach County Glades Airport)
Photo by Dave Fogarty
ATP/CFI-AIS/A&P-IA
Photo taken 28-Oct-2018
looking south.

Do you have a better or more recent aerial photo of Palm Beach County Glades Airport that you would like to share? If so, please send us your photo.

 
Sectional chart

 
Airport distance calculator
Flying to Palm Beach County Glades Airport? Find the distance to fly.

From to KPHK

Sunrise and sunset
Times for 30-Jan-2023
 Local
(UTC-5)
 Zulu
(UTC)
Morning civil twilight06:4611:46
Sunrise07:1012:10
Sunset18:0223:02
Evening civil twilight18:2723:27

Current date and time
Zulu (UTC)  30-Jan-2023 22:53:28
Local (UTC-5)  30-Jan-2023 17:53:28
 
METAR
K2IS 
19nm W 
302235Z AUTO 09006KT 10SM CLR 27/19 A3014 RMK AO2 T02670188
KF45 
25nm E 
302230Z AUTO 10SM CLR 25/18 A3016 RMK AO2 PWINO TSNO
KOBE 
30nm N 
302235Z AUTO VRB03KT 10SM FEW050 SCT060 28/19 A3014 RMK AO2
KPBI 
32nm E 
302153Z 14007KT 10SM FEW030 FEW050 27/19 A3016 RMK AO2 SLP211 VIRGA NW T02670189
KLNA 
35nm E 
302235Z AUTO 13007KT 10SM CLR 26/20 A3017 RMK AO2 T02620199 PNO
KSUA 
35nm NE 
302148Z 11012KT 10SM FEW026 27/19 A3016
TAF
KPBI 
32nm E 
301720Z 3018/3118 14008KT P6SM SCT025 BKN050 FM310300 12006KT P6SM FEW030 SCT050 FM311500 13010KT P6SM SCT030 BKN050
KSUA 
35nm NE 
301720Z 3018/3118 11009KT P6SM SCT030 SCT060 FM310100 15005KT P6SM FEW035 SCT200 FM310800 VRB02KT P6SM FEW030 SCT250 FM311400 18006KT P6SM SCT030 SCT200 AMD NOT SKED
NOTAMs
Click for the latest NOTAMs
NOTAMs are issued by the DoD/FAA and will open in a separate window not controlled by AirNav.

 

 
 

FBO, Fuel Providers, and Aircraft Ground Support

  
 Business Name 
 
 Contact 
 
 Services / Description 
 
Fuel Prices
 
Comments
  
Signature Flight Support 561-924-5253
[web site]
[email]
Airport management, Aviation fuel, Aircraft parking (ramp or tiedown), Hangars, GPU / Power cart, Passenger terminal and lounge, Public telephone, Restrooms

More info about Signature Flight Support
independent
100LL Jet A
FS $8.79 $8.80 
 Updated 28-Jan-2023
 
   write
FS=Full service
Update Fuel Prices
 

Would you like to see your business listed on this page?

 If your business provides an interesting product or service to pilots, flight crews, aircraft, or users of the Palm Beach County Glades Airport, you should consider listing it here.  To start the listing process, click on the button below
 
Add a business
 

Other Pages about Palm Beach County Glades Airport

www.pbia.org/...
 
Update a link
 
Copyright © AirNav, LLC. All rights reserved. Privacy Policy  Contact